Theta_e
347 349 348 347 347 348 350 350 351 348 348 349 348 347 348 347 346 346 347 348 347 346 346 346 346 346 345 344 344 344 343 344 341 340 341 340 340 339 337 339 340 340 340 340 339 338 339 339 338 338 337 337 335 334 334 333 333 333 334 333 333 333 333 332 332 333 333 334 334 334 335 336 336 337 337 338 338 338 338 338 338 338 338 339 338
347 347 348 346 347 349 351 351 350 350 350 350 348 349 349 347 348 348 348 348 348 346 346 346 345 345 345 345 346 345 344 344 343 342 341 340 341 338 338 339 339 340 339 339 339 339 340 340 340 340 339 339 338 338 337 335 334 333 332 332 333 333 334 333 333 334 335 335 335 335 337 337 338 338 338 339 338 339 339 339 339 338 339 339 338
347 346 349 349 348 350 350 351 351 351 350 350 349 349 350 348 348 348 347 348 348 346 346 346 345 344 344 343 344 346 346 346 345 345 343 342 340 338 339 339 339 339 339 339 339 340 340 340 341 341 341 340 339 339 340 339 338 337 337 336 337 336 336 336 336 337 338 338 338 338 338 338 338 339 339 339 339 340 340 339 339 339 339 339 338
345 347 351 351 351 351 350 351 350 350 351 350 349 349 350 348 344 344 343 344 347 346 345 345 344 343 342 342 343 344 346 346 346 345 344 342 340 339 340 339 339 338 338 339 340 340 340 340 341 341 342 341 340 340 340 341 340 340 340 339 339 338 338 339 339 340 339 340 340 339 339 339 339 339 339 340 339 340 340 340 339 339 339 339 338
344 347 352 352 351 351 351 351 350 351 350 347 348 349 350 348 345 345 345 344 347 347 346 345 344 343 341 341 341 343 345 346 346 346 345 344 342 341 341 340 339 339 338 339 340 341 341 341 342 341 341 341 341 340 341 341 341 341 340 340 340 340 340 340 340 340 340 340 340 339 340 340 340 339 339 339 339 340 339 339 339 340 339 339 338
345 346 351 352 351 351 350 351 351 350 350 347 349 351 349 350 348 347 347 347 348 349 349 346 344 343 342 342 342 342 345 346 346 346 345 344 343 342 342 341 340 340 340 339 339 339 340 341 342 342 342 341 341 341 341 341 341 341 341 341 340 341 341 340 340 340 340 340 340 340 340 340 339 339 339 338 338 339 339 339 339 339 338 337 337
345 345 350 353 351 351 351 351 349 349 351 349 350 352 350 350 350 348 349 348 348 349 349 348 344 344 343 342 343 342 344 346 345 346 345 344 344 342 341 342 342 342 342 341 340 339 338 340 341 341 342 341 341 342 341 341 341 341 341 341 341 341 341 341 341 341 340 340 340 340 339 339 339 339 338 338 338 338 337 336 334 334 333 331 329
346 346 350 354 352 351 351 350 347 350 350 347 350 352 351 351 350 349 349 348 348 349 350 349 345 343 343 342 342 342 344 346 345 345 345 344 343 342 339 339 339 339 340 343 343 341 338 338 340 340 340 341 340 341 341 341 341 342 342 341 342 341 341 341 341 340 340 340 340 339 338 338 337 337 336 334 333 333 330 327 324 323 323 322 320
347 347 349 354 353 352 352 348 347 350 347 347 352 352 351 351 350 350 350 350 350 349 350 349 345 343 341 340 342 341 343 345 345 345 344 342 341 341 340 337 335 336 339 343 343 342 339 335 336 337 337 339 339 339 339 340 341 342 342 342 342 342 341 340 340 340 340 339 339 337 335 333 332 331 329 325 323 323 321 320 319 319 319 319 318
348 347 349 352 353 353 353 348 346 347 346 350 353 351 352 353 352 350 349 350 351 351 351 349 345 343 341 341 341 340 342 344 343 344 343 342 341 341 341 338 337 337 337 340 341 342 341 338 337 338 336 335 337 338 337 339 339 341 341 341 340 340 339 339 339 340 340 338 335 332 329 325 323 322 320 319 319 319 319 319 319 319 319 319 318
348 347 347 351 353 354 351 347 346 345 347 352 353 351 350 349 352 349 345 347 348 348 350 350 347 343 342 342 338 336 340 344 343 344 344 342 341 341 340 339 339 337 334 336 339 339 339 339 341 341 339 333 332 333 336 338 338 338 338 336 336 336 336 336 337 338 337 335 331 326 322 319 319 319 320 320 320 320 320 319 319 318 318 318 317
347 347 346 348 352 353 349 347 348 346 346 351 354 353 348 345 348 347 346 346 344 345 346 347 347 344 344 343 339 338 339 343 345 344 344 343 342 342 341 341 340 338 336 337 339 338 334 332 335 337 338 336 333 331 332 334 334 333 333 332 331 330 330 331 333 334 332 329 325 321 319 319 320 321 321 321 320 320 319 318 318 318 317 317 317
345 346 345 344 346 347 345 346 350 349 346 350 352 350 346 345 348 350 350 346 343 345 344 347 347 345 344 342 341 342 340 342 344 343 343 343 342 342 342 342 341 340 338 335 335 337 333 329 330 330 332 336 337 336 333 333 333 331 331 331 327 324 323 325 327 328 326 322 320 319 320 321 322 321 320 320 319 319 318 319 319 318 318 318 318
343 343 343 342 341 341 342 342 346 348 346 348 349 346 345 346 350 353 352 346 345 346 344 346 347 344 342 342 341 342 341 341 343 342 342 342 342 342 341 341 342 342 341 337 335 337 337 334 333 330 328 329 332 335 334 335 336 333 331 329 323 320 321 321 322 321 320 320 320 321 322 321 321 320 320 319 319 318 319 320 320 320 320 321 321
341 342 341 341 340 340 341 340 342 344 344 347 348 347 347 347 349 353 352 349 348 348 346 346 346 343 342 343 342 341 341 341 341 341 341 341 341 341 341 341 342 343 343 342 341 342 340 337 335 333 329 327 328 329 329 332 331 329 330 326 320 318 319 319 319 319 319 321 322 322 321 321 321 320 320 320 320 320 321 321 322 322 323 323 323
340 342 341 341 340 340 341 341 341 341 341 344 346 349 350 350 351 351 351 351 350 349 349 348 346 344 343 343 341 340 341 341 340 341 340 340 341 340 341 342 342 343 344 344 343 342 341 337 336 335 331 328 328 327 326 327 325 325 326 323 319 318 318 319 320 320 321 322 323 322 321 320 321 321 321 321 320 320 321 322 323 323 324 324 324
340 341 341 342 341 340 341 341 341 342 341 342 345 349 352 353 352 350 350 351 350 351 351 350 347 343 343 343 341 341 341 340 339 340 340 339 340 340 341 341 342 343 344 344 343 342 343 340 337 336 333 329 328 327 324 322 322 323 323 322 320 321 321 321 321 322 323 323 323 322 321 321 322 322 322 322 321 321 322 323 324 324 324 324 324
339 340 340 341 342 341 341 341 341 341 341 341 344 346 348 352 352 351 352 351 349 350 351 351 348 343 342 343 342 342 342 340 339 340 341 339 339 340 341 341 342 342 344 344 344 343 344 343 340 338 336 331 329 328 325 323 322 322 323 323 323 323 323 323 323 323 323 323 323 323 322 322 322 322 322 322 322 322 323 323 324 324 324 324 324
339 339 339 340 342 341 341 342 342 341 340 339 341 346 351 354 352 350 351 350 347 349 352 351 348 345 344 344 343 342 342 341 341 341 341 340 340 340 340 341 341 341 342 343 344 344 344 344 342 342 340 335 332 332 330 328 326 325 325 325 325 325 325 324 324 324 324 324 324 323 323 323 323 323 323 322 322 323 323 323 323 324 324 324 324
337 336 337 339 341 342 341 342 342 341 340 338 339 346 351 351 348 346 347 347 346 349 351 351 350 348 348 345 344 344 343 342 342 342 341 341 341 340 340 340 339 340 342 342 342 343 344 343 342 342 342 339 335 334 333 332 330 328 328 327 327 327 325 325 325 325 325 325 324 324 324 324 324 323 323 323 323 323 323 323 323 323 324 324 324
334 334 336 338 339 342 342 341 341 341 340 339 338 341 345 344 345 345 346 347 349 349 348 350 351 351 350 347 346 345 343 343 342 342 343 342 342 341 340 340 340 340 341 341 341 342 343 343 341 341 343 342 338 335 335 334 331 329 329 328 328 328 327 326 326 326 326 326 326 326 326 325 325 324 324 324 324 323 323 323 323 323 323 323 324
336 335 335 336 339 341 343 341 340 341 340 340 339 338 339 341 344 346 347 348 349 349 349 350 351 352 352 349 346 347 345 344 343 342 343 343 343 342 341 340 340 341 342 341 341 341 342 343 342 342 343 344 342 339 336 333 330 329 328 328 327 327 327 327 327 327 327 327 326 326 326 326 326 326 325 325 325 324 324 324 323 323 324 323 323
338 339 336 336 337 340 343 341 340 340 340 340 338 339 342 342 342 343 346 346 347 350 351 351 350 350 350 349 348 348 347 345 345 344 344 344 344 342 341 342 341 341 343 340 338 340 341 341 343 343 344 344 343 341 337 332 330 328 327 328 328 328 327 327 326 326 326 326 326 326 326 326 326 326 326 326 326 326 326 326 325 325 324 324 323
337 340 339 338 337 338 341 341 339 337 339 340 339 340 345 347 344 342 344 347 347 348 350 352 352 351 351 352 351 349 348 347 346 345 344 345 345 344 343 343 342 342 343 342 340 341 342 341 341 343 343 343 342 339 335 333 331 329 328 328 328 328 327 327 327 326 326 327 326 327 327 327 328 328 328 328 327 327 327 326 326 326 326 325 325
333 337 338 339 338 337 339 339 338 338 339 339 339 339 341 344 343 340 341 345 346 347 348 351 353 352 353 354 352 349 347 347 346 345 344 346 346 346 344 343 343 343 343 343 341 341 342 341 341 341 341 341 340 336 334 334 333 331 331 330 328 328 328 328 328 328 329 330 330 331 332 332 332 332 332 332 331 331 329 328 327 327 327 326 326
332 333 334 338 338 336 340 340 339 340 341 341 341 341 341 341 341 340 341 342 344 346 347 349 350 351 352 353 352 350 348 347 347 346 346 347 346 346 346 346 345 343 344 345 342 341 342 342 341 340 337 337 338 336 335 336 336 333 331 331 330 329 329 329 330 331 332 333 334 334 334 334 335 335 335 335 335 334 333 333 331 330 329 327 327
332 332 333 335 335 336 341 342 341 341 342 342 342 342 341 341 342 342 340 339 341 344 345 347 349 350 350 350 349 351 350 349 349 348 348 347 347 347 348 348 346 345 345 346 345 345 344 342 342 339 335 334 335 334 333 335 336 333 331 332 331 330 330 330 331 333 333 333 334 334 335 335 335 336 336 336 336 336 336 335 335 334 332 330 328
331 332 332 333 334 335 339 341 340 341 342 343 343 342 340 340 342 343 340 337 338 341 343 346 349 350 350 349 348 350 351 351 351 351 350 348 347 346 346 347 348 347 347 346 346 347 345 343 343 340 334 332 333 332 332 333 332 332 331 331 331 331 331 331 332 332 332 333 333 334 334 334 335 335 336 336 336 336 336 336 336 336 335 333 331
332 332 333 333 334 335 337 338 338 340 342 342 342 342 340 340 341 342 340 336 336 340 343 344 348 351 352 351 349 348 349 348 347 349 349 345 341 340 341 343 344 345 347 347 346 346 346 344 342 339 333 331 332 331 331 332 332 332 332 331 331 331 331 331 331 332 332 332 332 332 332 333 333 334 334 335 335 335 336 336 336 336 336 335 335
334 335 334 333 334 335 336 337 336 338 340 341 342 341 341 341 340 340 340 337 335 339 341 341 344 347 350 351 351 349 348 347 345 349 349 342 338 338 340 340 339 340 343 345 343 343 345 344 343 341 336 331 331 331 331 331 332 332 332 332 332 332 332 332 331 330 331 330 330 329 329 330 331 332 333 333 334 334 335 335 336 336 336 336 336
336 336 335 333 333 334 336 337 336 337 338 339 340 341 341 342 340 339 341 339 336 337 338 338 340 343 344 345 346 345 347 347 347 349 348 343 340 339 339 336 334 334 336 337 338 337 340 344 344 341 336 332 329 330 331 330 330 331 332 332 332 332 333 333 332 332 332 332 331 330 330 330 330 330 330 330 332 333 334 334 335 335 336 335 336
338 337 335 334 333 334 334 336 336 336 336 337 338 339 341 341 340 341 343 341 338 337 335 336 339 340 340 342 343 342 342 343 343 345 346 343 341 340 338 336 335 333 331 332 332 329 331 335 336 334 336 335 332 329 329 330 330 330 330 330 331 331 331 332 331 332 332 333 333 333 332 332 332 332 331 331 331 331 331 332 334 334 334 335 335
338 337 335 334 333 333 334 335 337 336 336 336 335 338 340 339 338 340 340 338 339 339 336 336 338 337 337 338 339 341 342 342 341 343 346 345 342 340 339 337 337 337 335 334 333 331 331 332 332 331 333 335 332 330 331 331 332 332 332 331 331 331 331 333 333 333 332 332 333 334 333 333 332 332 332 332 331 330 329 330 331 332 333 333 334
338 337 336 334 333 333 333 334 336 336 336 336 335 337 339 338 336 336 336 335 337 339 337 335 336 335 335 336 336 338 340 341 341 340 344 347 348 347 344 340 338 339 338 336 336 335 335 335 334 333 333 334 333 333 332 333 334 334 334 334 333 334 334 333 334 334 334 333 333 333 334 333 332 332 331 331 330 330 329 328 328 328 329 330 332
337 336 336 336 334 333 333 334 335 335 335 335 334 336 336 335 334 334 335 334 336 341 339 335 337 338 338 337 335 335 337 339 340 338 338 342 343 345 344 341 339 338 338 337 337 336 336 336 336 335 336 336 335 334 333 333 334 333 334 334 333 334 334 334 334 334 334 333 332 332 332 332 331 331 331 331 331 330 329 328 327 326 326 327 329
338 336 335 335 335 333 333 334 334 335 335 334 334 334 333 333 333 333 335 334 335 340 339 336 337 340 341 341 338 336 337 337 337 335 334 335 335 336 336 336 336 336 337 337 337 337 337 336 335 334 335 335 334 334 334 333 333 333 333 333 333 333 334 335 337 336 335 333 331 330 330 330 330 330 331 331 331 332 331 330 328 326 326 325 326
339 337 336 336 336 334 333 334 334 334 334 333 333 332 332 332 334 333 334 333 334 337 338 336 336 338 340 341 338 336 336 336 335 334 333 333 333 334 334 335 335 334 335 335 334 335 335 334 334 333 333 332 332 332 333 333 334 334 334 333 334 335 334 335 337 337 335 333 331 330 329 330 330 331 332 332 333 333 333 332 332 329 328 326 326
338 337 336 335 335 335 334 333 333 333 333 333 332 332 331 332 333 334 334 334 334 335 337 337 336 337 336 336 335 334 334 334 333 333 332 332 332 333 332 333 333 333 334 333 334 335 335 334 333 333 333 332 333 334 334 335 336 335 335 337 337 338 339 338 336 334 333 334 332 331 331 332 334 335 336 337 338 337 336 334 334 333 331 328 327
338 339 337 336 334 335 335 333 333 333 333 333 332 331 331 331 332 333 333 333 334 334 334 334 334 335 335 333 332 332 332 332 332 332 332 332 332 332 332 332 332 333 334 334 337 340 343 343 340 338 337 334 334 337 340 343 344 339 337 341 341 341 342 340 337 335 336 338 337 337 339 341 342 341 341 342 343 342 340 338 337 336 336 333 330
340 341 339 337 334 333 334 334 333 333 333 333 332 332 331 330 330 332 333 333 332 332 332 332 332 334 334 332 332 332 331 330 331 331 332 332 332 331 331 332 333 334 335 336 337 339 345 349 350 347 345 343 342 344 347 351 352 348 347 349 348 346 344 341 340 342 343 344 343 342 344 345 345 346 346 347 347 345 344 342 341 341 339 338 336
342 343 342 342 339 334 333 333 333 333 332 333 332 332 331 330 329 330 331 332 332 332 332 331 332 333 332 333 333 332 331 330 329 330 331 331 332 332 332 332 334 337 338 339 341 342 345 351 353 352 352 352 352 352 353 354 354 353 355 356 352 349 347 346 345 347 346 345 344 344 346 347 347 347 348 349 349 349 347 346 346 345 344 343 342
344 344 344 346 346 341 335 332 333 333 331 332 332 331 330 329 329 328 330 331 331 331 331 331 331 331 331 331 331 331 331 330 330 330 330 331 331 332 332 333 335 337 338 340 344 346 347 350 353 354 354 354 354 354 354 354 354 354 356 356 353 350 350 348 345 346 346 346 346 347 348 349 349 349 349 349 349 348 347 347 347 347 348 347 347
345 345 345 345 347 348 343 335 332 332 332 331 331 330 330 329 328 328 329 329 330 331 331 330 330 329 329 329 329 329 329 330 330 329 330 331 331 331 332 332 333 336 337 338 341 343 347 352 354 354 354 354 354 354 354 355 355 355 355 354 353 351 348 345 343 345 346 348 349 350 348 349 350 348 346 346 347 346 346 346 347 347 348 348 349
346 346 346 345 346 349 348 343 338 335 332 332 331 330 330 329 329 328 327 328 329 329 329 329 328 328 328 328 328 329 328 329 329 329 329 330 331 331 331 332 332 334 336 338 339 341 345 350 354 355 355 355 355 356 355 355 356 356 355 352 350 349 346 345 348 350 349 350 351 350 349 348 349 347 345 344 347 347 347 348 348 348 347 347 348
347 347 347 347 346 347 348 348 343 339 336 333 331 330 330 329 329 328 327 327 328 328 328 327 328 327 327 328 328 328 328 329 329 329 330 330 330 331 331 331 333 334 335 337 339 341 344 346 351 355 355 354 356 357 356 357 358 356 354 352 348 347 348 350 352 351 350 350 351 351 350 349 349 349 348 348 348 346 343 343 342 341 339 340 343
347 347 347 347 347 347 347 347 345 341 340 336 331 330 331 330 329 328 328 328 328 328 328 327 327 327 327 328 328 327 328 329 329 330 330 330 330 331 331 332 334 335 337 339 341 343 345 346 349 352 354 354 356 358 357 358 359 357 355 352 348 350 351 352 352 351 350 351 351 351 352 351 351 350 344 339 338 335 333 333 332 331 330 330 332
347 348 347 347 348 348 347 348 346 343 341 338 332 330 330 330 330 329 329 329 329 329 329 328 327 327 327 327 328 328 328 328 329 330 330 330 331 331 333 335 336 339 343 347 349 349 348 349 349 351 353 355 357 357 357 359 359 357 355 351 350 352 353 353 353 352 352 352 352 351 350 346 343 340 333 328 330 329 327 327 327 327 328 328 327
348 348 347 348 348 348 347 348 347 346 344 340 335 330 330 330 331 331 330 331 331 330 329 329 328 328 328 328 328 327 328 329 330 330 330 331 333 333 334 337 338 343 349 354 355 355 355 355 354 354 356 358 358 358 358 358 357 356 354 351 351 353 353 354 354 354 353 349 345 344 341 335 330 330 328 326 328 329 329 329 330 331 329 328 329
348 348 348 348 348 348 349 348 348 348 346 344 339 334 333 331 332 332 331 332 331 331 330 329 329 329 328 328 328 328 329 329 329 330 331 332 334 335 337 339 341 346 352 356 357 357 357 356 357 358 358 358 358 359 358 358 358 357 355 354 354 354 354 354 353 349 344 338 332 332 331 329 327 331 334 333 330 333 337 340 340 340 336 335 335
348 348 348 348 348 348 349 349 349 348 348 347 344 340 338 337 336 335 335 335 333 332 331 330 330 330 329 329 329 329 329 330 330 331 332 333 336 338 340 341 342 348 354 357 357 357 357 358 358 359 359 359 360 359 358 358 358 357 355 355 353 351 349 346 341 336 332 330 329 329 330 330 332 337 341 341 338 337 341 344 344 344 343 343 342
348 348 348 348 348 349 349 349 350 349 349 349 348 344 343 342 341 341 340 340 338 335 333 332 332 331 330 330 330 330 331 331 331 332 334 335 339 341 342 345 349 353 356 357 357 358 359 359 359 359 359 359 360 359 359 359 358 356 355 352 346 342 338 333 329 329 331 332 330 330 333 337 339 340 341 343 342 339 339 341 343 344 345 344 343
Wind_Speed
7 6 6 7 7 8 7 7 6 6 7 6 7 7 7 7 7 6 7 6 6 7 7 7 7 7 7 7 7 7 7 6 6 6 4 3 3 3 3 3 3 3 3 4 4 4 4 5 5 5 6 6 6 6 5 4 4 3 3 2 2 2 2 3 3 3 4 5 5 5 5 5 6 7 7 7 8 8 9 9 9 9 10 10 11
6 6 6 6 6 7 6 6 6 6 6 5 5 6 5 5 6 5 5 5 4 5 6 6 6 6 6 6 5 5 6 6 6 6 5 4 3 2 3 3 3 2 2 3 3 3 3 3 3 4 4 5 5 5 5 4 4 3 2 2 2 2 3 3 3 4 4 5 5 5 5 6 7 7 8 8 9 9 10 9 9 10 10 10 11
6 7 6 5 5 5 5 5 5 5 5 4 4 5 5 4 5 4 4 4 3 4 4 5 5 5 6 5 4 4 4 4 5 5 5 4 3 2 2 2 2 2 1 2 2 2 2 2 2 1 2 3 3 3 3 3 3 3 3 2 2 3 3 4 4 5 5 6 6 6 7 7 8 8 9 9 9 10 10 10 10 10 10 11 12
8 7 6 5 5 4 4 4 4 4 4 4 4 5 4 3 4 4 4 3 2 3 3 3 4 4 5 5 4 3 3 4 4 5 4 4 4 3 1 2 2 2 1 2 1 1 0 1 1 1 1 2 1 1 1 2 2 3 3 3 3 4 4 4 5 6 6 7 7 7 8 8 8 9 10 10 10 10 10 10 11 11 11 11 11
8 7 6 4 4 4 3 3 4 4 3 4 4 4 3 2 4 4 4 3 1 1 1 2 3 3 4 4 4 3 3 4 4 4 4 4 4 3 1 1 1 1 1 1 1 0 0 0 1 2 1 0 0 1 1 1 2 3 3 3 4 4 5 5 5 6 7 8 8 8 8 8 9 9 10 10 10 10 10 10 11 11 11 11 10
8 7 6 4 3 3 3 3 3 3 3 3 4 3 2 2 3 4 6 4 0 0 0 1 2 2 3 4 4 3 3 3 3 4 4 4 4 3 2 1 1 1 0 1 1 1 1 1 1 2 2 1 0 1 2 2 3 3 3 4 4 4 5 6 6 6 7 8 8 8 8 9 9 9 9 10 9 9 9 10 10 10 10 9 9
7 7 6 4 3 3 3 3 3 3 3 3 4 3 2 3 3 4 6 5 1 1 1 2 2 1 2 4 3 3 3 3 3 4 4 4 4 3 3 2 1 2 1 1 0 0 1 2 1 1 1 1 1 1 2 2 3 4 4 4 5 5 5 6 6 6 7 8 8 8 8 8 9 8 9 9 9 9 9 9 9 9 8 8 8
8 7 6 4 3 3 2 3 3 3 2 3 4 2 2 3 3 3 3 4 3 1 1 1 2 1 2 3 3 3 3 2 3 4 3 4 4 4 4 4 2 1 1 1 1 1 2 3 2 1 2 2 1 2 2 3 4 4 4 5 5 5 6 6 6 6 7 7 8 8 8 8 8 8 8 8 8 8 8 8 8 8 7 7 8
8 7 6 4 3 3 2 2 2 3 2 4 3 2 2 2 2 3 2 3 3 1 1 1 3 2 2 2 2 2 2 2 3 4 4 5 6 4 4 4 3 2 1 0 1 2 2 2 1 1 2 2 2 2 3 3 4 4 5 5 5 6 6 6 6 7 7 7 7 7 7 7 7 7 7 7 7 7 7 7 8 8 8 8 8
8 7 7 5 3 3 3 2 3 3 2 3 2 2 2 1 1 2 2 1 1 1 0 1 3 3 2 1 2 2 2 3 3 4 4 5 6 5 4 4 4 3 1 1 1 1 1 1 1 2 2 3 3 4 3 3 4 4 4 5 5 6 7 7 7 7 7 6 6 6 6 7 7 7 7 7 7 7 7 7 8 8 8 8 8
8 7 7 5 3 3 3 3 3 2 3 3 2 1 1 1 1 2 2 1 1 0 1 2 3 3 2 1 2 2 3 3 3 4 4 4 5 5 4 5 5 4 3 2 1 1 1 1 1 1 2 2 3 3 4 4 4 4 5 5 5 5 6 6 6 5 5 5 5 5 6 6 6 6 6 6 6 7 7 7 7 7 7 8 8
8 8 7 6 5 4 4 3 3 2 2 3 2 0 1 1 1 2 3 2 2 1 1 2 3 3 3 2 2 3 3 3 3 4 4 3 4 5 4 4 5 5 5 4 3 2 2 1 0 1 1 2 2 2 3 4 4 4 3 3 4 4 4 4 4 4 4 4 5 5 5 5 5 5 5 5 5 5 5 6 6 7 7 7 8
9 8 7 7 6 5 4 4 3 2 2 2 2 1 2 2 2 3 2 2 3 2 2 3 3 3 3 3 3 3 2 3 3 3 3 3 3 3 3 3 3 4 6 6 5 4 3 2 1 1 1 2 3 3 3 3 3 3 2 3 4 4 4 4 3 3 3 4 4 4 5 5 5 5 5 5 5 5 5 6 6 7 7 7 8
9 9 8 7 6 5 4 4 3 3 2 2 1 1 2 2 1 1 1 3 3 2 1 2 3 2 3 4 3 3 2 2 2 3 3 3 2 2 2 2 2 2 3 3 4 4 4 4 3 2 0 1 2 2 3 3 3 3 2 2 4 4 3 3 3 3 3 4 4 5 5 6 6 6 6 5 5 6 6 6 7 7 8 8 9
10 9 8 8 7 6 5 4 4 3 2 1 1 1 2 2 1 1 1 3 3 2 1 2 3 2 3 4 3 3 3 3 3 4 4 3 2 1 1 1 1 0 1 2 2 2 2 3 5 4 2 0 0 1 1 2 3 2 2 2 3 3 2 2 2 3 4 4 5 6 6 7 7 7 6 6 6 7 7 7 7 7 8 8 8
11 10 9 8 7 7 6 5 5 4 3 2 2 1 2 2 1 2 1 2 3 3 1 1 3 3 2 2 2 2 3 4 4 4 4 3 2 2 1 1 1 1 1 1 1 2 2 3 5 5 5 3 2 1 1 1 1 1 1 1 1 2 2 2 3 3 4 5 5 6 6 7 7 7 7 6 6 6 6 7 7 7 7 7 7
11 11 9 8 8 8 7 7 6 6 5 4 3 2 3 2 2 3 1 1 2 3 2 1 2 3 2 2 3 2 1 3 4 3 3 3 3 2 2 2 2 3 2 2 3 3 2 3 4 4 5 5 3 2 2 2 1 1 1 2 2 3 3 3 3 3 4 4 4 5 6 6 6 6 6 6 5 6 6 6 6 6 7 7 7
12 11 10 9 9 8 8 8 7 6 6 5 5 4 3 2 2 2 1 3 2 1 1 1 1 2 2 3 3 1 1 1 2 2 3 3 3 3 3 3 3 4 4 3 4 4 3 4 4 4 4 5 4 3 3 2 2 2 2 3 3 3 3 3 3 3 3 3 3 3 4 4 5 5 6 6 6 6 6 6 6 6 6 7 7
13 12 11 10 9 9 9 8 7 7 7 7 6 4 3 3 3 3 2 4 2 1 1 1 2 2 2 3 2 2 1 1 1 1 2 3 3 3 4 3 3 4 4 4 4 4 4 4 4 4 5 5 4 4 4 3 3 2 2 2 3 3 3 3 3 3 3 3 3 3 3 4 4 5 5 6 6 6 6 7 7 7 7 7 7
14 13 12 11 10 10 10 9 8 8 7 8 7 6 6 6 4 3 3 4 3 2 2 2 3 2 3 4 3 3 3 2 2 2 2 2 2 3 3 2 3 3 4 4 4 5 5 6 4 4 5 5 5 4 4 4 4 3 2 2 3 3 3 3 3 3 4 4 3 3 3 4 4 5 5 6 6 7 7 7 8 8 8 8 8
15 14 14 13 11 10 10 10 9 8 8 8 7 8 8 7 5 4 4 3 4 3 3 3 3 3 4 4 4 4 3 3 4 3 3 3 2 2 2 2 3 3 3 3 4 4 5 6 6 5 5 6 6 5 4 5 5 4 4 3 4 4 4 4 4 4 4 4 4 4 4 5 5 6 6 6 7 7 7 8 8 9 9 9 9
16 16 15 14 13 11 11 11 10 9 9 8 8 9 9 8 6 6 5 4 5 4 4 4 4 4 5 4 4 4 5 4 5 4 4 4 3 3 3 3 2 2 2 3 3 4 5 6 6 5 6 7 7 6 6 5 5 5 5 4 4 4 4 5 5 5 4 4 4 5 5 6 6 7 7 7 8 8 8 9 9 9 9 9 9
17 17 16 15 14 13 12 12 11 10 10 8 9 9 8 8 8 7 6 5 5 5 5 5 5 5 5 5 5 5 5 5 5 5 5 4 4 5 4 3 3 3 3 4 5 5 6 6 6 6 7 7 7 7 7 6 6 6 5 5 5 5 5 6 6 6 6 6 6 6 6 7 7 8 9 9 9 9 9 10 10 10 10 11 10
19 18 17 16 16 15 13 13 12 12 11 9 9 9 8 9 9 8 7 6 5 5 5 5 5 5 5 6 6 5 6 5 5 5 5 5 5 5 5 5 5 4 4 5 5 5 6 6 6 7 7 8 8 8 7 7 7 7 7 7 7 7 7 7 7 8 8 8 8 7 8 8 9 9 10 10 11 11 11 12 12 12 12 12 12
21 20 18 17 16 16 14 14 13 12 11 10 10 9 9 10 10 9 8 7 6 6 5 5 6 6 5 6 6 5 6 6 6 6 5 6 5 6 6 6 6 6 5 5 5 5 5 6 6 6 7 7 7 8 7 8 8 8 9 10 10 10 10 10 9 10 9 9 9 9 9 9 10 10 11 11 12 12 13 13 14 14 14 14 14
22 21 19 18 18 16 14 14 14 12 12 12 11 10 10 10 10 10 9 8 7 6 6 6 6 6 6 6 6 5 6 6 6 6 6 6 6 6 6 6 7 6 6 6 6 5 3 4 5 5 6 6 6 7 7 7 9 10 9 11 12 11 11 12 12 11 11 11 11 11 12 13 13 13 13 13 14 14 14 15 15 16 16 16 16
23 22 20 19 19 17 15 14 14 13 13 13 12 11 11 11 10 10 10 10 8 7 6 6 6 6 6 6 6 6 6 6 6 7 6 6 6 6 7 7 7 7 5 6 6 5 3 3 4 4 4 5 5 6 6 6 8 9 9 11 13 12 12 14 14 14 14 14 15 15 16 16 17 17 17 17 17 17 17 17 17 17 17 18 18
26 24 22 20 20 19 16 15 15 15 14 14 13 13 12 12 11 10 11 11 10 8 7 7 7 7 7 7 7 7 7 7 7 7 7 7 7 8 7 7 7 7 7 6 5 4 2 3 3 4 4 5 5 5 5 6 7 9 10 11 14 14 14 14 15 16 17 17 18 19 19 20 20 20 20 20 20 20 20 19 19 19 19 19 19
27 25 24 22 21 20 18 17 17 16 15 15 14 14 13 13 12 12 12 12 12 10 9 8 8 7 7 8 7 7 8 8 7 8 8 9 9 9 9 8 8 8 8 8 6 4 3 3 4 6 6 5 5 6 5 6 8 10 12 13 14 16 16 15 15 16 18 18 19 20 21 21 22 22 22 22 23 23 22 22 22 22 21 21 21
27 26 25 24 22 21 19 19 18 17 16 15 15 14 14 14 13 13 13 13 13 11 10 10 9 9 9 9 8 8 8 8 8 8 8 8 8 9 9 9 10 9 9 10 10 6 4 4 3 5 7 6 7 8 9 10 11 12 14 15 16 17 18 19 18 18 18 19 20 21 22 22 23 23 24 24 25 25 25 25 24 24 24 24 23
28 27 26 25 24 22 21 20 19 19 18 17 17 16 15 15 15 14 13 14 14 14 12 11 10 10 10 10 10 10 9 8 9 9 9 8 8 9 10 10 11 11 10 12 12 7 4 5 6 7 10 11 11 12 13 15 15 15 16 17 19 19 20 21 21 20 20 21 22 23 23 24 24 25 26 26 27 27 27 27 27 27 27 27 26
28 28 27 26 25 24 22 21 20 20 20 19 19 18 17 17 17 16 15 14 15 15 14 12 12 12 11 11 11 11 10 10 10 10 10 10 10 10 11 11 11 11 11 12 14 13 10 11 12 12 13 14 15 16 16 17 18 19 18 19 21 22 22 23 24 24 23 23 24 25 25 26 27 27 28 28 29 29 29 30 30 30 30 30 29
29 28 28 27 26 25 23 22 21 21 21 21 21 20 19 19 18 18 18 17 16 16 15 14 14 13 13 12 12 12 11 11 11 11 11 11 11 11 11 12 11 11 12 11 14 16 16 14 15 16 16 16 18 18 17 17 18 20 21 21 22 23 23 24 24 26 26 24 24 24 26 27 29 30 31 31 31 31 32 32 32 33 32 32 32
29 28 28 27 27 26 25 24 23 22 22 21 21 21 20 21 20 20 19 19 18 17 16 15 15 15 14 13 13 13 12 12 12 12 12 12 11 11 12 12 12 12 13 14 14 17 19 18 17 19 19 19 20 20 19 19 18 19 21 22 23 23 24 23 23 24 25 25 23 23 23 25 27 29 31 32 33 33 33 34 34 35 35 35 34
28 28 28 28 28 27 26 26 25 24 23 22 21 21 21 22 21 21 20 20 19 17 17 16 15 15 15 14 14 14 14 14 13 13 14 14 14 13 13 14 14 14 15 16 16 17 20 20 20 20 20 21 22 22 23 23 22 22 23 23 24 24 25 25 25 24 24 25 24 24 24 25 26 28 29 30 31 32 33 34 35 35 36 36 36
28 28 28 28 28 28 28 28 27 26 25 24 22 22 22 22 22 22 22 22 20 18 18 18 16 16 15 15 15 15 16 17 16 15 16 16 16 16 16 16 16 16 16 18 18 19 20 22 23 22 22 23 24 24 24 25 25 26 26 26 26 26 26 25 25 25 26 26 27 27 28 29 30 30 30 30 30 30 31 32 34 35 36 36 37
28 28 28 28 28 29 29 29 28 28 27 25 24 23 22 22 22 22 22 23 22 21 20 19 18 18 17 17 16 16 18 18 18 17 17 17 17 17 17 17 17 17 17 18 19 20 22 23 25 25 25 26 27 26 26 26 26 27 28 29 29 29 28 26 25 26 28 29 31 32 32 32 32 31 31 31 30 30 30 32 33 34 36 37 37
29 29 29 28 29 29 30 30 29 29 28 27 26 25 24 23 23 23 23 23 23 22 21 20 20 20 20 20 19 18 19 19 19 18 18 18 18 17 18 17 18 18 19 20 20 21 22 23 25 26 27 28 28 28 28 28 27 27 28 28 27 27 27 28 28 29 30 31 34 36 36 35 34 32 31 30 28 28 30 31 32 33 34 36 37
30 30 29 29 29 30 30 29 29 30 29 28 27 26 25 25 25 25 24 24 24 24 23 22 22 22 21 21 20 20 20 20 19 19 19 19 19 19 19 20 20 20 21 21 20 19 19 20 22 24 26 28 28 27 26 23 23 25 26 26 26 26 26 29 31 32 31 31 33 35 35 35 35 34 33 31 29 29 31 32 32 32 32 33 36
30 29 29 30 30 31 30 30 30 30 30 29 29 28 27 27 27 27 26 26 25 25 25 24 24 23 23 22 21 21 21 20 20 20 20 21 21 21 21 22 22 22 22 22 22 21 19 18 19 21 22 24 25 23 19 15 15 18 20 23 25 26 27 30 31 31 31 31 33 34 34 34 36 37 36 35 34 32 33 34 35 34 32 32 33
29 29 29 29 30 31 31 30 30 30 30 30 30 29 28 28 28 29 28 28 27 27 26 26 25 25 24 24 23 23 23 22 21 21 21 22 22 22 22 23 23 22 22 22 21 22 20 18 17 18 18 19 19 17 15 13 14 15 15 18 25 27 28 31 33 33 32 33 34 35 35 35 36 38 39 39 38 36 35 36 37 36 35 34 33
30 30 30 29 29 29 31 31 31 31 31 31 31 31 29 29 29 29 30 29 29 29 28 27 27 26 25 25 25 25 25 24 23 22 22 23 23 23 23 23 23 23 23 23 21 21 21 20 17 16 17 18 18 15 15 14 14 14 14 18 24 27 29 34 38 37 35 33 33 36 37 37 37 39 40 39 39 39 38 38 38 37 36 36 35
32 32 31 31 30 29 30 31 32 32 32 32 32 31 30 29 29 30 30 30 30 31 30 29 29 28 27 27 26 26 26 25 24 24 24 24 24 24 24 24 24 24 24 25 25 25 23 20 18 17 17 19 19 17 16 15 13 13 14 18 25 28 31 37 40 39 36 34 34 36 38 38 39 41 42 40 38 37 36 37 36 36 36 35 35
34 34 33 33 33 31 30 31 32 32 33 33 33 32 30 29 30 30 31 31 32 32 32 31 30 29 29 28 28 28 27 26 26 26 26 25 26 26 26 26 26 26 26 27 27 27 25 22 20 18 18 20 19 17 17 17 16 15 11 16 25 30 33 38 39 37 34 33 34 36 38 38 38 40 42 41 40 40 39 37 34 34 34 32 32
35 35 35 34 34 34 33 32 33 33 33 33 33 31 30 29 30 31 31 32 33 33 33 32 31 31 30 30 29 29 28 28 28 27 27 27 27 28 27 27 27 27 28 28 28 28 28 27 25 20 17 19 19 17 18 17 18 16 10 13 24 30 34 37 37 35 33 33 34 36 37 36 35 37 41 42 41 42 42 40 38 38 36 33 31
36 36 36 35 35 35 35 35 35 34 33 34 33 31 29 29 30 31 32 33 33 34 34 34 33 32 31 31 31 30 29 30 30 29 29 28 28 28 28 28 28 28 28 27 27 28 28 29 29 25 21 21 19 20 19 16 17 16 12 15 24 29 33 34 34 34 32 30 31 33 37 36 34 36 42 42 42 43 43 42 41 42 41 39 36
37 36 36 35 36 36 35 35 36 36 35 35 34 32 29 29 30 31 32 33 34 35 35 35 34 33 33 32 32 31 31 31 31 30 30 29 28 28 27 28 28 26 24 22 22 24 24 25 27 25 21 18 17 19 18 16 19 17 13 19 27 29 31 33 33 31 28 26 26 30 36 39 37 38 41 41 42 43 43 42 42 41 41 40 39
37 36 36 35 35 35 35 35 35 36 36 36 36 33 31 30 30 31 32 34 35 36 36 36 35 35 34 34 33 33 33 32 31 31 30 28 27 27 27 27 27 25 21 18 18 20 20 20 21 20 19 16 16 19 18 18 22 18 14 20 27 27 28 30 31 30 28 26 27 29 35 38 36 36 40 40 41 42 41 40 38 37 36 35 34
37 37 36 35 34 34 34 35 35 35 35 36 36 35 33 32 32 33 34 35 36 37 37 37 36 36 36 35 34 34 34 33 32 32 30 27 26 26 27 27 26 24 20 16 17 19 20 20 20 21 21 19 19 21 20 19 22 20 18 20 21 20 24 28 30 32 31 29 26 26 32 37 35 34 36 37 40 41 38 34 31 31 34 34 32
36 36 35 34 34 34 34 35 35 34 34 35 36 35 34 33 33 33 34 36 36 37 37 37 37 37 37 36 35 35 35 34 33 32 29 27 25 25 26 26 26 24 18 15 16 18 19 21 22 22 22 21 20 20 19 20 20 18 17 18 16 18 23 26 29 32 32 31 27 25 29 35 33 32 31 33 37 39 33 27 26 26 28 29 30
35 34 34 34 34 34 34 35 34 34 34 34 35 35 34 33 32 33 34 35 36 37 37 38 37 37 37 37 36 36 35 33 33 31 28 26 25 24 24 24 23 20 16 14 16 17 18 20 20 20 21 20 20 20 18 18 15 11 12 16 16 17 21 23 25 28 29 29 28 26 27 29 29 30 30 29 33 37 33 28 25 24 24 26 28
Wind_Direction
122 119 119 117 112 102 95 94 98 103 101 99 105 102 97 102 101 98 97 89 86 92 89 81 76 77 77 76 79 75 71 75 73 76 73 63 76 85 90 102 102 97 94 88 78 76 72 72 70 64 63 63 66 70 72 72 67 63 59 49 28 16 1 356 4 357 351 350 352 355 357 357 351 349 349 348 345 343 344 346 345 344 346 348 349
131 130 123 118 110 101 95 94 93 94 97 103 108 103 100 105 104 96 94 89 87 93 87 82 81 73 70 69 75 76 67 67 74 80 78 68 67 84 97 107 103 101 97 90 87 89 80 73 71 68 67 62 61 63 64 64 63 64 55 42 20 6 354 351 355 355 355 354 352 352 348 347 345 341 340 340 340 339 340 342 343 342 343 345 345
143 136 121 113 104 96 99 96 91 98 102 104 110 106 104 114 119 118 114 104 91 95 89 80 79 72 69 65 68 81 74 65 70 79 82 79 72 70 94 110 106 113 107 88 84 88 88 82 66 73 80 64 55 51 53 52 42 38 33 24 7 351 351 350 350 351 347 345 347 345 340 340 340 338 337 338 339 340 340 341 341 342 342 342 343
147 137 122 114 109 101 102 102 102 108 109 121 126 108 101 106 116 129 139 128 107 102 98 85 76 70 73 66 60 72 80 77 80 85 82 79 71 62 83 110 122 144 138 108 90 52 70 82 2 318 63 68 41 26 19 20 10 3 357 350 345 340 342 341 339 340 333 333 335 333 333 334 335 335 335 336 338 339 339 339 340 339 340 341 343
149 143 126 118 121 116 110 108 115 119 126 133 119 106 118 110 102 120 125 113 106 102 98 99 87 73 71 63 55 62 78 81 81 82 75 72 72 76 85 83 128 164 161 145 150 167 248 78 316 315 1 36 257 345 312 314 313 313 322 317 317 324 323 324 325 328 328 330 331 329 332 333 332 333 333 333 333 334 335 338 338 337 339 343 347
153 149 131 124 128 123 115 113 136 133 121 117 106 107 126 97 82 100 99 92 91 198 167 174 113 80 69 64 53 52 78 85 74 74 76 79 81 92 99 69 54 23 69 144 168 178 207 204 223 304 321 297 246 279 279 283 288 291 300 300 307 311 309 313 319 322 326 330 332 333 335 334 333 333 331 330 331 333 335 338 338 338 343 349 354
159 154 141 135 135 128 126 135 154 132 118 122 114 109 101 80 48 57 85 96 82 303 220 198 149 103 66 68 55 50 79 91 75 69 67 74 76 87 106 107 75 10 15 69 26 279 252 242 192 215 265 275 274 263 272 273 273 283 296 301 311 311 306 310 315 319 325 330 334 335 336 335 333 330 328 330 334 339 342 342 343 345 350 354 359
162 158 149 141 142 136 146 172 148 121 135 124 107 103 99 97 83 61 85 102 84 5 270 200 168 146 76 73 58 49 82 87 76 77 70 77 78 75 82 84 82 58 53 64 5 356 304 274 248 211 234 261 275 256 261 272 275 283 295 302 307 306 305 310 315 320 325 330 333 333 333 333 332 330 332 337 343 347 349 351 354 360 2 2 6
165 161 154 147 158 143 165 199 138 123 134 109 102 109 90 74 87 87 84 85 77 29 339 186 168 152 103 83 57 51 100 102 89 91 85 88 89 84 75 66 56 55 68 91 353 5 332 291 280 288 278 270 266 259 255 268 277 280 286 294 299 302 311 318 319 320 323 329 332 333 334 337 339 342 347 352 356 357 359 4 7 10 14 15 18
172 168 155 154 164 152 172 187 147 140 124 104 110 115 103 78 48 69 85 80 85 81 42 172 165 151 119 78 64 82 122 115 104 106 95 93 100 98 87 76 62 46 46 183 170 43 30 29 23 3 335 301 277 271 265 266 276 279 280 286 295 303 311 315 315 319 325 333 338 341 343 347 354 1 3 4 5 6 9 12 13 15 18 20 23
176 170 157 155 158 163 174 165 151 143 116 113 117 105 116 111 44 20 28 37 29 142 192 172 159 163 149 88 90 123 138 123 118 127 121 116 114 105 93 87 81 66 53 79 113 68 56 61 33 14 3 334 305 287 283 281 280 281 285 294 305 309 311 314 317 324 332 340 347 353 356 2 9 14 14 14 14 13 14 16 17 19 22 23 25
180 172 163 160 159 171 177 160 156 145 127 129 128 187 302 322 336 349 8 8 353 21 159 165 163 174 172 138 125 141 152 136 135 144 139 134 121 112 108 93 86 83 76 75 82 56 37 53 309 286 302 312 313 303 295 290 284 288 301 320 333 331 327 326 329 335 340 351 360 4 11 19 23 25 25 24 23 21 21 24 26 27 29 31 33
188 177 175 172 169 178 177 161 157 159 153 146 167 224 314 326 335 359 2 350 12 64 138 148 155 170 163 154 142 146 171 158 153 163 158 150 132 117 117 102 81 82 84 88 93 86 68 61 38 289 265 270 283 295 307 313 314 323 335 343 345 344 344 343 345 350 353 7 18 23 28 30 30 31 30 30 30 33 34 33 37 39 40 39 37
198 189 190 190 186 196 193 176 166 172 168 155 197 286 339 325 349 43 288 328 25 86 146 132 137 162 152 151 161 166 185 194 185 190 184 169 158 138 123 111 98 81 76 84 83 78 67 52 40 26 104 222 262 283 298 305 311 321 332 340 344 344 347 350 358 11 19 29 34 33 31 26 25 23 22 28 32 33 32 33 37 39 39 37 33
204 199 201 201 201 207 209 204 196 191 178 173 234 311 317 302 308 196 245 321 0 61 134 146 141 163 156 150 163 181 197 210 212 207 203 194 189 193 168 128 145 176 30 42 36 34 27 26 25 19 25 56 269 289 283 272 269 283 306 332 346 351 356 2 14 31 37 38 34 28 23 18 15 13 12 20 23 22 19 19 24 25 27 27 23
205 203 204 207 210 208 211 216 212 211 202 203 229 262 274 284 278 244 230 318 333 26 69 179 146 150 159 149 164 208 205 189 196 207 210 211 217 224 215 198 222 265 343 17 264 295 329 351 10 12 11 13 3 17 20 299 265 265 285 348 8 10 12 19 24 33 37 34 27 18 12 8 4 2 0 4 7 7 4 3 6 8 10 11 10
205 203 205 209 213 210 213 216 214 220 216 214 226 229 244 250 252 261 256 275 313 26 21 281 160 153 155 156 169 196 170 142 169 196 213 221 226 230 236 240 242 265 284 252 255 283 301 309 339 4 10 12 12 19 28 25 9 10 20 24 30 25 16 16 16 18 20 19 13 4 357 354 351 347 344 344 345 344 347 348 350 352 354 356 358
212 208 207 209 214 213 214 215 215 222 223 222 227 230 244 249 242 248 250 260 272 56 2 302 226 179 160 174 178 176 25 56 179 195 207 223 233 229 235 246 247 261 277 273 272 281 268 277 312 341 359 12 17 19 23 22 20 26 23 13 14 13 2 357 356 353 351 344 343 340 334 333 330 328 327 325 323 324 330 334 336 339 341 343 346
221 218 215 215 216 215 216 215 215 221 226 226 223 226 240 244 241 233 234 257 262 203 198 270 270 241 181 200 214 210 224 239 237 226 207 217 242 243 235 239 249 261 272 276 268 266 262 264 287 304 316 346 4 5 6 359 349 349 1 354 346 344 329 318 314 307 303 296 300 310 309 310 310 311 312 310 311 313 319 325 327 329 331 333 335
224 226 225 222 219 217 216 215 214 218 226 229 224 218 223 232 245 251 249 260 267 235 204 217 253 242 203 203 213 225 220 208 233 254 249 248 245 242 237 238 259 264 267 278 266 255 264 269 273 277 288 312 333 342 344 337 325 305 293 307 304 299 293 285 278 273 275 277 286 296 299 302 302 303 304 303 305 308 312 317 319 323 326 328 328
228 230 229 226 222 219 218 216 214 217 221 226 228 225 225 232 245 259 260 260 261 253 235 231 237 239 229 212 207 225 227 221 234 241 259 269 254 244 250 248 257 263 270 286 278 261 265 276 284 275 269 288 307 321 323 319 316 300 283 282 279 274 271 269 265 264 267 274 285 293 298 301 302 302 302 302 303 304 306 308 311 315 318 321 322
232 233 233 230 226 222 220 219 214 216 220 219 224 229 230 232 237 248 256 255 256 261 259 249 238 234 238 235 223 223 220 220 231 236 243 256 262 264 260 256 263 272 283 287 281 270 260 263 275 273 261 269 285 299 306 305 303 291 278 272 274 272 268 266 265 268 272 276 281 289 295 298 302 303 303 303 303 302 301 301 303 306 308 310 310
232 234 236 234 232 227 223 222 219 218 220 219 223 227 229 236 239 241 247 255 258 259 257 255 250 245 242 243 240 233 229 225 227 237 242 248 263 274 282 299 302 299 291 288 288 280 268 263 262 259 256 258 268 280 292 296 290 281 275 271 273 278 276 273 272 272 275 280 283 286 292 297 300 303 303 304 303 301 299 297 298 299 300 300 300
231 233 236 236 236 233 226 225 223 221 221 221 225 224 222 230 237 239 243 250 256 258 253 248 249 250 246 242 239 235 235 233 229 236 245 249 259 274 286 297 295 293 294 296 302 289 273 269 258 251 252 255 264 276 285 291 288 284 283 280 280 282 282 280 280 282 282 283 287 290 294 298 301 302 304 303 303 301 299 296 295 294 294 294 294
232 234 235 236 239 239 233 230 227 223 224 223 226 228 227 229 237 242 244 245 250 254 253 247 243 243 239 238 237 235 238 238 235 235 241 253 264 273 279 286 287 291 293 292 303 295 269 258 250 249 252 256 269 281 288 289 287 288 289 288 290 289 287 287 285 285 287 288 291 294 297 299 300 301 301 301 301 301 300 297 295 293 292 292 292
235 237 238 238 242 242 237 234 231 226 226 226 227 229 231 233 238 242 244 246 247 247 249 248 246 243 236 235 235 233 236 237 237 239 242 252 266 272 278 287 286 288 291 293 310 316 276 248 246 254 262 264 269 277 282 280 281 289 291 289 294 294 289 289 288 287 288 290 292 294 296 296 296 297 297 298 299 300 300 299 297 294 292 291 290
238 239 241 240 242 243 237 235 234 230 230 230 230 231 233 235 238 239 242 246 247 244 244 244 245 245 239 236 235 235 239 237 238 243 245 248 256 264 275 287 291 293 291 291 304 308 279 248 246 255 270 272 268 271 277 273 276 290 294 289 294 299 293 289 289 289 289 290 292 293 293 294 294 294 295 295 296 296 296 297 297 296 293 291 289
241 240 241 241 242 241 237 234 234 232 231 232 232 234 236 235 236 240 241 245 248 244 241 242 242 243 242 241 236 236 240 239 238 242 245 246 249 254 262 273 284 293 296 296 299 297 277 249 243 254 270 278 279 279 283 286 288 295 298 294 296 301 301 297 293 292 292 292 292 293 293 293 293 293 293 293 293 293 293 293 293 293 293 291 289
240 241 240 239 240 239 237 234 234 232 231 232 232 236 240 238 237 240 242 245 248 245 240 240 239 237 240 242 240 238 241 242 242 246 250 252 255 260 264 265 268 276 289 297 296 290 281 265 257 274 280 278 285 286 285 292 297 299 300 299 299 301 303 303 298 295 295 295 295 295 294 294 294 294 294 293 292 291 290 290 289 289 290 289 288
237 238 238 237 237 236 234 232 232 231 230 232 233 234 239 241 239 241 244 245 246 245 242 241 240 237 236 239 243 242 242 246 248 251 255 258 262 267 268 267 268 270 274 286 294 298 289 270 256 273 280 281 285 286 286 287 288 292 296 296 297 300 302 302 302 301 300 299 298 298 297 297 296 295 294 293 292 291 290 288 287 286 286 286 286
234 233 233 234 235 234 232 232 232 232 231 233 235 235 235 239 241 242 244 246 248 247 245 245 244 243 241 241 246 248 247 248 251 254 260 267 273 273 273 273 276 276 275 282 289 291 282 278 272 271 284 292 289 283 287 291 290 290 293 294 295 297 297 298 299 300 299 299 298 298 299 298 297 295 293 292 290 290 289 287 286 285 283 282 282
233 232 230 230 232 233 232 232 232 233 234 234 236 237 235 236 239 240 241 245 249 249 247 248 248 246 245 243 246 251 251 251 253 257 262 270 274 274 278 281 284 286 285 285 287 288 288 286 283 282 288 292 288 286 288 291 291 289 287 288 290 291 293 294 294 294 293 294 294 295 295 294 293 292 290 289 287 286 285 284 283 282 281 280 279
232 231 229 228 230 231 232 232 232 233 234 234 236 238 238 237 237 239 240 242 246 249 249 248 249 250 249 248 249 251 251 252 256 259 262 266 271 273 278 281 284 288 290 288 289 293 295 293 292 292 291 289 289 291 292 293 295 295 293 291 290 291 292 294 297 298 298 298 296 294 291 288 285 283 282 281 281 280 279 279 279 278 278 277 276
230 230 229 228 228 229 230 231 230 231 233 234 234 236 238 239 238 238 240 242 244 248 250 250 251 254 254 253 253 253 253 253 254 258 260 260 262 266 271 276 279 281 285 287 287 290 294 295 296 297 298 298 299 300 300 300 299 299 299 299 300 300 301 303 305 305 305 304 303 298 293 288 285 281 279 277 275 274 274 274 274 274 274 274 274
227 228 228 228 228 228 229 231 230 231 233 233 233 234 237 239 239 239 240 242 244 246 250 252 252 254 255 255 254 256 258 256 253 255 258 258 257 259 262 268 273 276 280 285 286 287 291 293 294 295 297 298 299 301 303 303 304 303 301 301 303 305 308 310 310 308 306 304 302 299 295 292 288 284 282 279 277 275 274 273 272 271 271 271 271
225 226 226 227 229 229 229 230 231 231 232 233 232 233 235 238 239 239 240 242 242 243 247 251 251 250 252 253 253 256 258 259 258 256 257 260 261 263 265 267 271 274 277 281 285 287 289 290 292 294 294 293 294 297 300 301 303 305 304 305 307 309 310 310 310 309 307 304 301 298 295 292 289 287 285 283 281 279 278 276 274 272 271 270 270
223 224 224 225 227 229 229 230 232 233 233 233 233 233 235 236 237 239 241 242 242 243 246 250 251 250 250 251 251 254 258 259 260 259 260 262 263 265 268 270 274 278 279 281 284 286 287 289 291 293 293 294 295 296 298 300 303 304 306 309 311 311 311 310 309 307 306 304 303 301 299 296 292 290 288 286 284 282 281 280 277 275 273 271 269
221 223 224 224 226 229 230 231 233 234 234 234 233 233 234 236 236 237 239 241 242 244 246 249 251 252 253 254 253 254 257 258 259 261 263 264 266 268 270 272 276 280 282 283 283 283 284 286 288 290 291 294 297 299 301 303 304 306 308 309 310 311 311 309 307 307 307 307 306 305 304 301 298 295 292 288 284 282 281 281 280 279 277 274 270
221 223 224 225 226 228 231 232 233 235 236 235 235 234 234 235 236 236 237 240 242 245 247 250 252 254 255 256 255 254 255 256 258 261 264 266 268 270 273 276 279 281 283 284 283 280 280 282 286 288 291 293 295 297 300 300 300 306 311 311 309 308 307 307 308 309 309 308 306 304 302 300 298 296 293 289 285 284 284 284 282 281 279 277 273
221 222 224 226 227 228 230 232 234 235 236 237 237 236 235 235 236 237 237 239 242 246 248 250 252 253 255 257 257 257 257 256 256 260 264 268 271 274 276 279 280 281 282 283 282 280 277 276 280 284 288 291 291 293 297 295 293 303 312 311 307 306 308 309 308 307 304 302 302 301 299 297 298 297 295 293 290 288 286 285 284 282 279 277 274
221 221 222 225 227 229 230 231 232 234 236 237 238 238 237 236 236 237 239 240 242 245 248 250 252 253 255 256 258 260 260 259 258 260 264 268 271 274 276 278 279 280 280 281 281 280 276 272 272 276 280 283 284 287 291 288 289 299 303 301 304 310 310 307 304 300 297 298 301 302 299 297 296 296 295 293 292 291 289 285 282 280 278 276 274
222 222 222 223 226 229 231 231 231 233 235 238 239 240 239 238 237 237 239 241 243 244 247 250 252 254 255 256 257 259 260 261 261 262 264 267 269 271 272 273 275 275 277 278 276 276 276 271 268 270 272 275 277 280 282 283 288 291 289 294 305 311 309 305 303 300 299 303 306 304 301 299 298 296 294 294 294 295 295 293 289 286 282 278 275
224 224 224 225 226 227 231 233 233 234 236 239 241 241 240 239 238 238 239 241 243 245 247 249 252 253 255 257 258 259 260 261 263 263 264 266 268 270 270 270 270 270 271 272 272 273 273 270 267 267 269 272 274 277 280 280 275 272 281 298 304 306 304 301 298 298 303 308 308 303 300 302 303 301 299 300 301 302 301 299 297 294 291 286 280
226 226 226 227 228 227 229 233 234 235 237 239 241 242 241 239 238 238 239 240 243 246 248 250 252 253 254 255 257 259 261 262 262 263 264 265 266 268 270 270 269 267 266 266 267 269 268 267 267 266 267 271 274 277 279 279 276 275 285 299 299 297 294 291 291 296 303 305 303 302 302 302 305 305 305 307 310 310 308 305 302 299 298 295 288
228 228 228 230 231 230 230 232 234 235 237 239 241 241 240 239 237 237 238 240 243 246 248 250 251 252 254 255 256 258 259 261 262 264 265 266 268 270 271 270 268 266 265 265 264 265 267 267 267 265 268 273 277 280 281 284 288 290 294 295 292 290 287 287 292 298 301 302 306 308 305 304 308 308 306 307 310 310 307 306 305 303 301 299 294
230 230 231 232 233 233 232 233 234 235 235 238 241 241 239 238 236 235 237 240 243 246 248 250 251 251 253 254 255 256 257 259 262 264 265 268 270 272 273 273 272 270 268 266 264 265 266 266 267 268 271 276 281 284 287 291 288 287 296 297 290 287 288 291 296 298 301 309 314 309 303 305 310 307 304 307 310 309 307 305 304 304 304 304 302
231 232 232 234 235 236 235 235 236 236 235 237 240 240 239 237 235 234 236 239 243 245 247 249 250 251 252 253 255 256 257 259 261 263 266 268 270 271 272 272 273 273 271 270 269 268 267 266 269 271 270 275 284 288 291 292 282 281 300 300 291 290 293 295 298 299 305 315 313 303 300 305 310 307 305 308 309 307 306 307 306 305 306 307 307
231 233 234 235 236 238 238 238 237 237 237 238 239 239 238 235 234 234 235 238 241 244 246 248 249 250 251 253 254 256 257 259 261 262 265 267 268 269 268 267 268 269 270 271 273 275 274 271 273 277 277 279 285 287 290 289 285 292 311 297 286 290 296 297 300 305 310 313 310 305 302 304 308 308 305 307 307 304 306 310 311 310 310 309 308
230 233 235 235 236 238 239 240 240 240 240 241 240 239 237 235 234 234 236 238 240 242 244 246 248 250 251 252 253 256 257 259 261 262 264 264 263 263 263 264 265 266 268 269 271 277 282 282 282 284 286 289 290 289 290 292 292 302 308 294 288 298 302 303 307 310 310 310 311 310 304 304 309 308 305 308 310 308 307 309 310 309 310 311 309
229 233 234 235 236 238 239 241 241 241 241 242 243 241 239 237 235 235 236 238 239 241 243 245 247 249 251 252 253 254 256 258 260 262 262 261 258 257 258 260 263 266 268 267 268 273 279 282 282 282 286 292 292 289 293 296 297 300 299 294 299 307 304 304 307 309 308 309 315 318 309 307 311 309 305 306 309 308 306 303 302 303 304 307 307
229 231 234 235 237 238 240 241 242 242 242 244 245 244 242 240 238 237 237 238 239 240 242 244 246 248 250 252 253 254 255 257 259 260 261 258 253 252 255 259 263 265 266 268 271 271 272 273 275 278 285 291 292 295 301 301 299 303 302 301 304 303 301 302 304 305 305 308 318 322 312 306 306 304 303 303 304 306 308 305 302 301 300 300 301